{"data":{"norad_id":56564,"intl_designator":"2023-066A","name":"BEIDOU-3 G4 (C62)","alt_names":[],"object_type":"PAYLOAD","status":"ACTIVE","operator":null,"country":"PRC","launch_date":"2023-05-17","launch_site_code":"XICLF","launch_vehicle":null,"mission":null,"orbit_class":"UNKNOWN","rcs_meters":null,"size_class":null,"mass_kg":null,"dimensions":null,"purposes":["comms","nav"],"wikipedia_slug":null,"has_3d_model":false,"image_url":null,"decayed_at":null,"tle_current":{"epoch":"2026-05-25T04:24:35.930016Z","epoch_age_seconds":52332,"freshness":"FRESH","line1":"1 56564U 23066A   26145.18374919 -.00000284  00000+0  00000+0 0  9996","line2":"2 56564   0.5146 326.0191 0003833 169.4000 313.5730  1.00272246 11168","mean_motion":1.00272246,"eccentricity":0.0003833,"inclination_deg":0.5146,"raan_deg":326.0191,"arg_perigee_deg":169.4,"mean_anomaly_deg":313.573,"bstar":0,"rev_number":1116,"period_min":1436.0903015975,"perigee_km":35770.304034426,"apogee_km":35802.627418876,"semimajor_km":42164.602726651,"source":"CELESTRAK","updated_at":"2026-05-25T13:38:24.224236Z"}}}